Regional Weather Roundup
Issued by NWS

Home | Current Version | Previous Version | Text Only | Print | Product List | Glossary On
Versions: 1 2 3 4 5 6 7 8 9 10 11 12 13 14 15 16 17 18 19 20 21 22 23 24 25 26 27 28 29 30 31 32 33 34 35 36 37 38 39 40 41 42 43 44 45 46 47 48 49 50
246
ASUS44 KFWD 211910
RWRTX
NORTH TEXAS HOURLY WEATHER ROUNDUP
NATIONAL WEATHER SERVICE FORT WORTH TX
200 PM CDT THU SEP 21 2017

NOTE: "FAIR" INDICATES FEW OR NO CLOUDS BELOW 12,000 FEET WITH NO
SIGNIFICANT WEATHER AND/OR OBSTRUCTIONS TO VISIBILITY.

TXZ118-119-212000-
DALLAS/FORT WORTH METROPLEX

CITY           SKY/WX    TMP DP  RH WIND       PRES   REMARKS
DFW AIRPORT    MOSUNNY   94  71  47 S14G20    29.90F HX 101
DALLAS LOVE    MOSUNNY   94  70  45 S14G22    29.91F HX 100
FTW MEACHAM    SUNNY     93  73  52 S14G20    29.90F HX 102
DAL-EXECUTIVE  MOSUNNY   93  70  46 S9G22     29.92F HX  99
FTW-ALLIANCE   MOSUNNY   94  72  48 SE8G17    29.91F HX 102
FTW-NAS-JRB    SUNNY     93  70  46 S10       29.91F HX  99
FTW-SPINKS     MOSUNNY   93  70  46 SE16      29.93F HX  99
ARLINGTON      MOSUNNY   92  71  50 SE15      29.92F HX  98
GRAND PRAIRIE  MOSUNNY   91  70  49 SE12G21   29.93F HX  97
ADDISON        MOSUNNY   91  70  49 SE13G22   29.93F HX  97
MESQUITE       MOSUNNY   93  66  40 SE12G17   29.93F HX  96
LANCASTER      MOSUNNY   92  69  46 SE14      29.93F HX  97
$$

TXZ091>094-102>105-117-120-121-131>134-212000-
NORTH CENTRAL TEXAS

CITY           SKY/WX    TMP DP  RH WIND       PRES   REMARKS
SHRMAN/DENISON SUNNY     91  71  50 S14G21    29.94F HX  97
GAINESVILLE    SUNNY     90  73  56 SE15      29.94F HX  97
BOWIE          SUNNY     89  73  58 SE12G20   29.92F HX  97
BRIDGEPORT     SUNNY     91  71  51 S12G17    29.93F HX  97
DECATUR        SUNNY     90  72  55 SE12G18   29.91F HX  96
DENTON         SUNNY     91  72  53 S15G21    29.91F HX  98
MCKINNEY       SUNNY     91  72  53 S15G24    29.93F HX  98
BONHAM         MOSUNNY   90  71  52 S12       29.95F HX  96
GREENVILLE     PTSUNNY   93  70  46 SE13      29.95F HX  99
ROCKWALL       MOSUNNY   91  72  52 S16G24    29.94F HX  98
TERRELL        MOSUNNY   93  69  45 SE14G21   29.94F HX  98
WAXAHACHIE     MOSUNNY   94  70  45 S14       29.94F HX  99
CLEBURNE       SUNNY     91  72  52 S13G21    29.94F HX  98
GRANBURY       MOSUNNY   93  71  48 SE9       29.92F HX  99
$$

TXZ083>090-098>101-113>116-127>130-139>142-154-155-212000-
WESTERN NORTH TEXAS

CITY           SKY/WX    TMP DP  RH WIND       PRES   REMARKS
WICHITA FALLS  MOSUNNY   93  72  50 SE22G28   29.86F HX 101
WF-KICKAPOO    SUNNY     93  73  51 S17       29.89F HX 101
VERNON         SUNNY     97  62  31 S21G26    29.85F HX  98
ABILENE        SUNNY     93  66  40 S14G23    29.91F HX  96
ABILENE-DYESS  SUNNY     96  67  38 S16G23    29.89F HX  99
GRAHAM         SUNNY     97  67  37 SE12G20   29.87F HX 101
BRECKENRIDGE   MOSUNNY   96  65  36 S14G24    29.89F HX  98
CISCO          MOSUNNY   93  68  43 S14G24    29.94F HAZE    HX  97
EASTLAND       PTSUNNY   94  69  44 S15G22    29.91F HX  98
RANGER         MOSUNNY   92  69  46 S7        29.92F HX  97
MINERAL WELLS  MOSUNNY   94  71  47 SE12G23   29.90F HX 101
STEPHENVILLE   MOSUNNY   93  68  43 S12G20    29.95F HX  97
COMANCHE       PTSUNNY   96  67  39 S8G22     29.93F HX 100
BROWNWOOD      MOSUNNY   93  64  38 S9G18     29.92F HX  95
COLEMAN        SUNNY     93  65  39 S14G21    29.93F HX  95
$$

TXZ143>147-156>162-174-175-212000-
CENTRAL TEXAS

CITY           SKY/WX    TMP DP  RH WIND       PRES   REMARKS
WACO           MOSUNNY   96  69  41 S13       29.91F HX 102
WACO-TSTC      MOSUNNY   95  68  41 S13       29.92F HX  99
WACO-MCGREGOR  MOSUNNY   94  72  48 S10G22    29.92F HX 102
HILLSBORO      PTSUNNY   92  71  48 SE13G21   29.93F HX  98
CORSICANA      MOSUNNY   92  70  48 SE9G20    29.94F HX  97
MEXIA          MOSUNNY   92  69  47 SE8G20    29.93F HX  96
CAMERON        MOSUNNY   92  72  52 S8        29.92F HX  99
TEMPLE         MOSUNNY   93  71  48 SE14G20   29.93F HX 100
KILLEEN        MOSUNNY   91  70  49 S12       29.91F HX  97
FORT HOOD      PTSUNNY   91  69  49 S10       29.89F HX  95
GATESVILLE     MOSUNNY   91  68  46 S9        29.94F HX  95
HAMILTON       PTSUNNY   94  67  41 S17       29.94F HX  98
LAMPASAS       MOSUNNY   92  71  49 S10G16    29.92F HX  98
$$

TXZ095>097-106>112-122>126-135>138-148>153-164>167-212000-
EAST TEXAS

CITY           SKY/WX    TMP DP  RH WIND       PRES   REMARKS
PARIS          PTSUNNY   91  73  55 S13       29.96F HX  99
SULPHUR SPRNGS MOSUNNY   92  69  47 S10G16    29.98F HX  96
MOUNT PLEASANT MOSUNNY   91  73  55 S8        29.97F HX  99
GILMER         PTSUNNY   90  71  54 SE7       29.96F HX  96
MINEOLA        MOSUNNY   90  72  55 S6        29.95F HX  96
TYLER          MOSUNNY   89  70  53 S7        29.96F HX  94
LONGVIEW       MOSUNNY   92  72  51 S8        29.95F HX  99
MARSHALL       MOSUNNY   90  71  54 SW3       29.99F HX  96
ATHENS         MOSUNNY   90  68  48 S7        29.94F HX  93
PALESTINE      MOSUNNY   90  72  56 SE6       29.97F HX  97
JACKSONVILLE   MOSUNNY   88  73  60 SE5       30.00F HX  94
HENDERSON      MOSUNNY   93  70  47 S5        29.97F HX  99
CENTER         LGT RAIN  82  75  79 E7        30.00F
NACOGDOCHES    PTSUNNY   88  75  65 E7        29.97F HX  97
LUFKIN         MOSUNNY   87  75  67 SE6       29.96F HX  96
$$

SUPPLEMENTAL OBSERVATIONS (NWS FORT WORTH AREA)

CITY           SKY/WX    TMP DP  RH WIND       PRES   REMARKS
CADDO GRASSLND   N/A     90  70  51 S9G17       N/A  HX  95
PAT MAYSE LAKE   N/A     88  73  62 SE12        N/A  HX  96
GREENVILLE       N/A     90  68  48 S9G17       N/A  HX  93
CEDAR HILL       N/A     93  68  43 S9G17       N/A  HX  97
LBJ GRASSLAND    N/A     91  70  49 SE13G21     N/A  HX  97
POSSUM KINGDOM   N/A     97  68  38 S12G20      N/A  HX 101
GRANBURY         N/A     93  72  49 SE10G21     N/A  HX 100
MCGREGOR         N/A     93  68  43 S12G21      N/A  HX  97
TEMPLE           N/A     93  70  46 S8G16       N/A  HX  99
$$

SUPPLEMENTAL OBSERVATIONS (NWS NORMAN AREA)

CITY           SKY/WX    TMP DP  RH WIND       PRES   REMARKS
ODELL            N/A     96  70  42 S18       29.85F HX 102
CROWELL          N/A    100  67  34 S17G23    29.85F HX 105
KNOX CITY        N/A    101  60  25 S22G28    29.85F HX 101
SEYMOUR          N/A     98  64  32 S15G23    29.86F HX  99
MILLERS CREEK    N/A     99  64  32 S16G22      N/A  HX 101
$$

SUPPLEMENTAL OBSERVATIONS (NWS SAN ANGELO AREA)

CITY           SKY/WX    TMP DP  RH WIND       PRES   REMARKS
WEINERT          N/A     99  66  34 S14       29.87F HX 102
HASKELL          N/A     95  61  32 S16G23    29.87F HX  95
THROCKMORTON     N/A     98  69  38 SE14      29.89F HX 104
STAMFORD         N/A     97  67  38 S14       29.88F HX 101
CLYDE            N/A     93  68  43 S14G20    29.94F HX  97
HAMBY            N/A     97  64  34 S16G25      N/A  HX  99
IVIE RESERVOIR   N/A     95  66  38 SE15G22     N/A  HX  98
COLORADO BEND    N/A     93  66  40 S12         N/A  HX  96
$$

SUPPLEMENTAL OBSERVATIONS (NWS SHREVEPORT AREA)

CITY           SKY/WX    TMP DP  RH WIND       PRES   REMARKS
CLARKSVILLE      N/A     90  70  51 S8G17       N/A  HX  95
TEXARKANA        N/A     91  70  49 S2          N/A  HX  97
LINDEN           N/A     93  70  46 E5          N/A  HX  99
GILMER           N/A     93  72  49 S5          N/A  HX 100
HENDERSON        N/A     93  70  46 S7          N/A  HX  99
N SABINE NF      N/A     93  75  55 MISG        N/A  HX 104
S SABINE NF      N/A     90  72  55 E5          N/A  HX  96
$$

SUPPLEMENTAL OBSERVATIONS ARE A COLLECTION OF AUTOMATED INSTRUMENTS
THAT ARE MAINTAINED BY A VARIETY OF FEDERAL AND STATE AGENCIES.
CERTAIN ELEMENTS...SUCH AS HUMIDITY VALUES AND SUSTAINED WIND
SPEEDS...MAY BE APPROXIMATED.





USA.gov is the U.S. government's official web portal to all federal, state and local government web resources and services.